Simultaneous Nadir Overpasses (SNOs) Predictions

Prediction of SNOs between LANDSAT-8 and NOAA-19 Satellite Orbit:

Table of predicted SNOs for the next 14.0 days since TLE Epoch: 12/26/2014
Index Date (LANDSAT-8) Time (LANDSAT-8) Lat,Lon (LANDSAT-8) SZA (LANDSAT-8 ) Date (NOAA-19) Time (NOAA-19) Lat,Lon (NOAA-19) SZA (NOAA-19 ) Distance(km) Time Diff (sec)
1 12/26/2014 16:38:39 72.61, -69.32 95.86 12/26/2014 16:38:00 72.61, -69.31 95.86 0.64 39
2 12/26/2014 17:28:09 -72.49, 98.09 84.27 12/26/2014 17:29:02 -72.50, 98.14 84.25 2.57 53
3 12/28/2014 21:22:52 72.76,-140.10 95.91 12/28/2014 21:21:40 72.85,-140.70 96.00 21.85 72
4 12/28/2014 22:12:23 -72.58, 27.20 84.27 12/28/2014 22:12:38 -72.57, 27.14 84.29 2.57 15
5 12/31/2014 02:56:38 -72.60, -43.83 84.39 12/31/2014 02:56:13 -72.60, -43.78 84.40 1.78 25
6 12/31/2014 03:46:05 72.51, 123.64 95.52 12/31/2014 03:47:11 72.50, 123.67 95.51 1.78 66
7 01/02/2015 07:40:52 -72.66,-114.80 84.51 01/02/2015 07:39:48 -72.64,-114.73 84.53 2.94 64
8 01/02/2015 08:30:19 72.56, 52.67 95.39 01/02/2015 08:30:47 72.57, 52.67 95.40 0.56 28
9 01/04/2015 13:14:33 72.59, -18.35 95.21 01/04/2015 13:14:22 72.60, -18.26 95.22 3.20 11
10 01/04/2015 14:04:07 -72.26, 148.68 85.13 01/04/2015 14:05:17 -72.24, 149.72 85.15 35.57 70
11 01/06/2015 17:58:46 72.64, -89.30 95.02 01/06/2015 17:57:57 72.64, -89.20 95.01 3.45 49
12 01/06/2015 18:48:15 -72.58, 78.21 85.06 01/06/2015 18:48:57 -72.56, 78.21 85.08 2.44 42
13 01/08/2015 22:42:51 73.10,-159.47 95.19 01/08/2015 22:41:42 73.18,-161.27 95.29 58.66 69
14 01/08/2015 23:32:28 -72.61, 7.21 85.31 01/08/2015 23:32:32 -72.64, 7.18 85.28 2.93 4




NCC Satellite Simultaneous Nadir Overpasses (SNOs) Prediction Service
